Regional Weather Roundup
Issued by NWS Midland/Odessa, TX

Skip options and go directly to product.
Home | Oldest Version | Previous Version | Current Version | All | Text Only | Save Text | Print | Product List | Glossary Off

Skip product version selection by date and time.   

454
ASUS44 KMAF 041001
RWRMAF
MIDLAND AREA WEATHER ROUNDUP
NATIONAL WEATHER SERVICE MIDLAND TX
500 AM CDT MON MAY 04 2015

...IN SOUTHWEST TEXAS AND SOUTHEAST NEW MEXICO...

CITY           SKY/WX    TMP DP  RH WIND       PRES   REMARKS
ALPINE         CLEAR     57  54  88 NE6       30.02S
ANDREWS        FAIR      56  53  88 NE3       29.93S
ARTESIA        PTCLDY    55  46  71 E6        29.92R
BIG SPRING     MOCLDY    67  57  70 SE15      29.96S
CARLSBAD       MOCLDY    61  49  64 S7        29.87S
DRYDEN           N/A     70  65  84 E15       29.88F
FORT STOCKTON  MOCLDY    64  58  80 SE6       29.91S
GUAD PASS      NOT AVBL
HOBBS          CLEAR     55  55 100 E7        29.94F
MARFA          CLEAR     54  52  94 N8        29.99F
MIDLAND AIRPK  PTCLDY    67  56  68 SE8       29.92F
MIDLAND INTL   PTCLDY    66  57  72 SE13      29.90F
ODESSA         MOCLDY    66  56  70 SE14      29.91S
PECOS          MOCLDY    65  56  74 E7        29.88F
PRESIDIO       FAIR      70  55  60 NE13G23   29.85S
SEMINOLE       CLEAR     56  51  84 E5        29.95F
SNYDER         CLEAR     62  55  77 S6        29.96R
WINK           MOCLDY    68  55  63 SE7       29.83F
$$
...OTHER STATIONS IN TEXAS...

CITY           SKY/WX    TMP DP  RH WIND       PRES   REMARKS
ABILENE        CLEAR     64  59  83 S9        29.96R
AMARILLO       CLOUDY    57  53  86 SE14      30.01R
AUSTIN         CLOUDY    61  60  97 CALM      30.00F
BROWNSVILLE    PTCLDY    75  68  78 SE13      29.93F
CORPUS CHRISTI PTCLDY    73  68  84 SE10      29.95F
DALLAS FTW     MOCLDY    66  62  87 S12       30.00R
DEL RIO        CLOUDY    71  66  84 SE14G24   29.89S
EL PASO        CLOUDY    69  43  38 N13       29.89F
HOUSTON INT    PTCLDY    61  60  97 SE3       30.02S
LUBBOCK        PTCLDY    63  55  75 S8        29.96R
SAN ANGELO     CLEAR     66  60  81 SE7       29.93S
SAN ANTONIO    CLOUDY    69  64  84 E10       29.99S
WACO           MOCLDY    65  63  93 S9        30.01S
WICHITA FALLS  NOT AVBL
$$
...OTHER LOCATIONS IN NEW MEXICO...

CITY           SKY/WX    TMP DP  RH WIND       PRES   REMARKS
ALAMAGORDO     CLOUDY    64  45  48 NE13      29.96F
ALBUQUERQUE    MOCLDY    58  44  60 NE13      30.01S
CANNON AFB     NOT AVBL
CLOVIS         MOCLDY    54  48  82 S5        29.98F
HOLLOMAN AFB   NOT AVBL
ROSWELL        PTCLDY    58  48  69 SE7       29.91S
RUIDOSO        CLOUDY    55  39  54 SW18      30.10R
SANTA FE       MOCLDY    49  40  71 N3        30.07F
TRUTH OR CONSE MOCLDY    61  39  44 E7        29.95F
TUCUMCARI        N/A     57  49  74 SE6       29.96S
$$

USA.gov is the U.S. government's official web portal to all federal, state and local government web resources and services.